Simultaneous Nadir Overpasses (SNOs) Predictions

Prediction of SNOs between METOP-B and TERRA Satellite Orbit:

Table of predicted SNOs for the next 14.0 days since TLE Epoch: 6/9/2018
Index Date (METOP-B) Time (METOP-B) Lat,Lon (METOP-B) SZA (METOP-B ) Date (TERRA) Time (TERRA) Lat,Lon (TERRA) SZA (TERRA ) Distance(km) Time Diff (sec)
1 06/10/2018 12:09:37 -81.35,-134.00 118.61 06/10/2018 12:09:44 -81.36,-134.04 118.61 0.87 7
2 06/10/2018 13:00:17 81.36, 33.54 61.42 06/10/2018 12:59:10 81.36, 33.71 61.41 3.05 67
3 06/13/2018 07:43:58 -81.35, -67.87 118.84 06/13/2018 07:44:01 -81.35, -67.82 118.84 0.88 3
4 06/13/2018 08:34:37 81.36, 100.05 61.23 06/13/2018 08:33:27 81.35, 99.89 61.17 2.72 70
5 06/16/2018 02:27:37 81.35,-168.71 61.03 06/16/2018 02:28:50 81.36,-168.86 61.05 2.50 73
6 06/16/2018 03:18:18 -81.35, -1.37 118.98 06/16/2018 03:18:17 -81.36, -1.23 118.96 2.35 1
7 06/16/2018 04:08:46 81.37, 170.92 61.63 06/16/2018 04:07:32 81.55, 170.79 61.68 20.22 74
8 06/18/2018 22:01:57 81.35,-102.62 60.89 06/18/2018 22:03:06 81.34,-102.67 60.92 1.05 69
9 06/18/2018 22:52:37 -81.35, 65.13 119.06 06/18/2018 22:52:33 -81.34, 64.99 119.09 2.50 4
10 06/21/2018 17:36:17 81.35, -36.14 60.86 06/21/2018 17:37:22 81.35, -36.10 60.90 0.71 65




NCC Satellite Simultaneous Nadir Overpasses (SNOs) Prediction Service
